Theta_e
317 319 321 323 324 329 332 335 337 332 330 326 320 316 315 316 316 318 317 315 316 316 316 313 313 312 310 309 308 307 307 305 306 303 302 302 302 304 304 306 306 306 305
314 316 319 322 323 325 330 334 336 334 328 327 323 322 319 315 314 314 313 313 313 313 314 314 312 311 309 308 307 308 305 305 306 304 303 298 298 301 302 305 305 306 305
312 314 316 318 321 323 328 331 335 335 327 326 323 320 317 311 308 307 307 308 310 309 311 311 311 310 309 305 306 306 305 303 304 308 306 301 300 298 301 302 304 304 303
312 313 315 317 319 320 326 330 332 335 327 324 320 316 310 306 308 308 308 308 310 310 307 307 308 309 307 305 304 304 304 304 302 302 302 304 304 300 295 300 302 302 300
309 310 312 316 318 320 322 326 331 333 329 323 320 317 312 312 311 307 306 307 308 307 307 306 304 304 305 306 303 304 303 302 303 302 300 300 302 305 301 296 297 300 297
308 310 312 315 316 318 319 323 327 330 328 322 320 319 314 312 309 305 304 305 306 306 307 304 302 302 300 300 301 300 301 301 303 303 302 300 298 299 301 300 298 298 295
307 308 310 311 314 315 316 318 321 326 329 321 320 318 318 313 310 305 304 304 304 304 302 300 298 298 298 297 299 298 299 301 301 301 300 301 300 303 302 302 299 298 296
306 307 308 309 311 313 314 316 318 321 326 321 320 318 314 313 309 306 305 304 305 307 304 298 298 296 296 296 298 298 298 300 299 299 299 299 299 301 302 302 300 296 296
303 304 307 308 309 311 313 314 314 319 323 324 319 316 312 312 306 305 305 304 304 301 303 297 295 294 294 295 296 296 295 297 298 299 299 298 298 299 301 302 302 300 295
301 303 306 307 308 309 311 314 314 314 318 323 316 313 310 309 305 303 301 300 301 297 297 294 293 292 293 293 294 294 294 294 295 296 297 296 297 298 300 300 300 301 300
300 302 304 306 307 308 308 309 312 312 310 315 312 308 307 304 303 300 299 297 296 295 295 293 292 291 291 291 291 291 291 292 292 294 294 295 296 297 297 298 298 298 300
301 303 305 306 306 307 310 306 305 306 304 307 306 305 303 301 298 297 296 296 294 295 293 292 291 290 290 290 290 289 290 289 291 292 294 293 293 295 296 297 297 298 299
302 303 305 306 305 308 308 308 306 303 302 302 301 299 297 296 296 295 295 295 294 293 293 292 290 289 289 289 291 289 289 289 290 293 292 291 293 293 295 296 296 296 295
299 301 304 303 305 306 306 298 304 301 299 298 296 294 295 295 296 295 294 294 295 293 294 292 290 291 291 290 291 289 289 289 289 290 290 290 291 292 293 293 293 293 293
298 299 302 302 303 304 305 306 302 297 295 295 295 294 295 294 295 294 295 295 293 292 292 291 293 292 291 291 290 290 289 288 287 287 289 289 291 290 292 292 292 292 292
298 300 301 301 302 302 304 304 304 299 295 292 288 293 294 293 294 294 293 292 290 290 290 291 289 289 291 289 289 288 287 286 285 285 287 286 285 285 283 286 285 290 291
293 295 298 300 303 303 303 305 304 299 295 291 291 288 288 290 289 290 289 289 288 289 289 291 289 289 289 287 287 287 287 287 287 286 286 285 285 285 284 282 281 281 281
294 296 298 301 303 304 305 304 303 298 294 292 291 290 288 288 288 287 286 286 286 286 287 286 287 287 286 287 286 286 286 286 287 287 288 287 286 287 285 284 283 283 283
294 294 297 301 303 304 304 300 300 297 295 292 290 290 288 289 289 285 285 285 285 285 286 287 287 286 286 286 285 286 286 285 285 285 285 285 285 283 284 283 281 281 281
295 294 298 300 303 304 302 296 295 297 295 293 291 291 289 287 287 286 285 285 286 286 287 286 287 286 285 286 285 286 287 285 284 284 284 283 284 282 281 282 282 281 281
295 296 298 300 300 299 296 293 289 291 294 294 292 290 290 288 287 285 285 285 286 287 287 286 287 287 288 285 285 286 287 286 285 284 283 284 282 282 281 282 284 283 283
296 292 293 290 292 291 291 289 288 290 288 289 289 288 288 287 286 285 285 285 285 286 287 286 287 287 286 285 284 284 286 285 285 285 285 284 281 282 281 281 280 279 280
296 294 291 289 289 289 290 287 286 287 288 288 287 286 286 286 286 285 284 284 285 286 286 286 286 285 285 284 284 283 283 283 285 286 284 282 281 282 280 280 278 278 282
295 293 292 291 288 286 287 288 285 285 286 285 286 286 286 285 286 286 286 285 285 285 286 286 286 285 285 284 285 284 284 281 283 281 282 282 282 281 281 280 279 281 282
294 291 290 289 286 287 285 285 285 285 285 286 285 285 286 286 285 287 287 287 287 289 288 287 287 285 285 285 284 283 283 282 282 282 282 281 281 280 280 280 281 281 282
292 290 289 289 288 287 286 287 288 287 285 286 286 286 286 286 286 286 285 286 286 286 286 287 288 287 286 284 284 283 282 281 280 279 279 281 281 280 279 280 281 282 281
Wind_Speed
14 13 12 12 14 15 16 18 19 17 13 12 11 10 13 11 10 11 15 16 13 17 16 11 13 12 11 11 12 11 13 10 11 10 9 8 7 6 5 5 6 7 7
13 17 17 12 12 14 16 18 20 17 16 12 11 9 9 8 9 9 12 13 14 15 14 14 14 15 11 13 14 13 11 10 13 7 8 8 5 5 5 5 5 7 6
18 20 21 18 15 14 16 18 21 18 17 17 10 6 6 5 7 10 11 14 16 15 15 13 12 15 13 12 15 13 12 9 11 10 3 6 5 10 6 6 5 6 5
19 18 18 19 19 18 15 17 18 19 16 19 17 20 12 11 9 11 11 11 14 17 14 14 13 14 12 14 13 10 10 9 11 7 4 2 8 5 7 6 6 7 6
17 17 18 17 17 17 18 16 17 19 17 19 19 17 17 12 9 12 15 15 15 15 15 14 12 12 11 13 14 12 12 9 9 8 8 5 4 3 7 9 9 7 4
18 16 16 16 16 16 18 18 18 20 17 21 22 23 22 17 14 15 14 13 12 11 16 13 12 10 9 11 10 9 6 6 7 8 8 8 5 8 4 9 12 9 8
15 16 16 17 18 20 20 18 21 21 18 21 22 24 24 21 21 20 16 16 13 13 15 14 12 11 10 11 10 10 11 6 9 9 6 5 4 4 4 7 9 8 8
18 17 16 17 18 20 22 23 24 23 22 20 23 19 20 14 13 17 15 15 15 16 18 15 11 12 13 11 11 8 9 10 8 9 6 5 5 6 5 6 9 9 6
22 22 20 19 18 19 21 23 23 27 23 18 17 18 17 18 15 16 15 13 12 12 18 17 16 12 11 11 11 9 10 9 12 11 9 8 6 6 6 6 6 6 7
24 24 22 19 18 17 18 23 24 22 24 15 15 15 15 14 15 13 14 15 13 16 17 17 15 14 11 11 10 11 9 9 8 8 11 9 6 7 7 6 4 3 3
23 23 24 24 21 18 10 12 20 22 20 8 10 12 14 15 14 14 13 16 18 19 19 17 15 13 10 7 11 8 9 8 11 11 12 12 10 7 8 6 5 5 5
25 23 23 24 21 20 15 9 10 15 11 9 11 14 13 13 14 14 15 18 19 19 18 17 16 15 13 10 11 9 9 10 11 11 12 12 8 9 9 6 7 6 4
24 22 22 21 18 19 16 15 13 7 6 4 2 6 10 13 14 15 17 18 18 19 17 18 18 16 13 13 9 9 9 7 9 11 12 12 14 11 8 7 6 7 6
26 22 20 20 18 19 18 11 13 4 3 3 6 9 10 12 14 15 17 18 18 19 19 17 18 16 17 15 16 13 11 11 8 8 11 10 11 11 11 9 7 6 7
26 25 20 19 19 18 20 19 8 6 5 5 6 8 10 12 14 16 16 17 16 16 16 18 18 16 14 11 15 15 16 14 12 10 10 9 11 12 10 8 10 9 7
25 23 25 26 23 19 20 19 11 10 7 8 5 7 9 9 12 13 14 15 15 15 15 14 14 15 12 17 18 15 12 13 14 13 11 11 14 14 11 10 5 3 8
21 25 29 27 21 19 18 18 8 8 7 6 9 7 9 9 9 12 14 15 15 15 14 13 14 14 10 22 20 16 9 9 10 12 11 10 8 13 12 13 13 10 10
26 26 22 23 22 19 18 14 6 8 7 8 8 10 11 12 12 11 12 12 13 14 13 13 12 11 10 21 20 15 10 9 9 9 9 9 10 10 13 12 11 10 8
24 20 19 21 21 18 16 10 6 7 7 9 10 10 9 13 13 12 12 11 13 11 11 12 13 13 14 22 21 17 11 10 10 8 9 9 8 14 14 11 11 10 9
22 21 21 20 19 15 12 8 7 6 8 9 10 10 10 11 11 12 13 10 11 11 10 11 11 15 14 23 24 16 10 13 11 11 10 13 11 16 14 10 10 9 9
18 19 19 15 15 13 11 7 2 5 1 6 9 11 11 12 11 10 10 11 11 12 12 13 12 13 15 15 20 15 11 10 11 10 10 9 16 18 16 11 7 7 9
18 13 10 7 10 8 8 7 5 1 2 5 6 10 11 9 11 14 11 12 13 14 13 13 12 11 12 18 16 16 9 14 10 10 9 10 18 19 17 10 12 16 10
18 13 10 8 7 5 6 6 2 2 4 7 8 9 10 10 11 14 13 11 11 11 12 11 10 10 9 10 18 15 13 10 9 8 11 17 19 17 12 14 17 14 8
17 15 14 11 8 7 7 6 1 3 4 6 9 9 10 12 11 9 9 10 10 10 10 11 10 10 10 10 10 9 10 10 9 11 10 12 11 11 10 11 10 7 7
15 13 13 8 7 6 5 5 1 4 5 5 8 9 8 10 10 8 8 8 7 9 12 10 11 13 12 11 15 13 9 9 10 11 9 10 9 9 8 9 9 8 7
12 12 11 10 7 6 5 3 2 4 5 6 5 5 6 7 8 8 7 8 8 7 8 11 11 7 11 21 21 19 18 17 19 9 9 9 10 9 9 9 9 8 9
Wind_Direction
312 309 294 284 280 264 252 233 222 202 199 196 186 188 191 186 189 191 189 175 183 183 187 179 171 184 182 177 172 163 161 152 149 131 122 114 114 126 129 135 134 120 97
345 348 347 332 290 272 257 243 230 203 202 200 201 206 198 206 189 181 179 180 175 182 185 179 179 182 177 174 177 170 163 163 173 160 165 155 147 137 141 145 143 130 113
350 340 334 333 325 294 270 249 234 207 195 200 192 196 167 147 179 186 181 181 178 178 177 176 182 181 176 177 178 175 170 173 185 203 236 164 169 144 160 161 146 133 116
350 344 337 334 323 310 296 275 257 233 204 193 185 183 188 185 199 200 185 179 183 180 178 175 179 185 180 172 179 170 194 157 195 185 210 325 114 181 156 166 155 126 133
335 334 330 327 322 320 314 286 264 243 203 199 194 189 189 197 184 182 180 183 182 181 179 174 173 174 182 172 176 170 185 169 203 203 176 178 164 182 157 153 160 155 150
333 332 331 332 333 330 321 310 278 257 201 202 201 203 196 190 181 183 183 186 175 176 181 173 167 161 169 155 164 160 173 152 210 201 198 180 174 179 172 139 158 166 139
346 331 332 329 328 332 328 316 299 264 218 212 207 203 203 194 193 179 177 177 178 179 177 164 157 155 157 150 153 156 150 176 210 194 189 171 144 157 164 148 153 156 127
346 337 329 328 329 328 327 323 310 284 251 212 213 208 203 196 199 186 177 182 187 180 170 158 150 147 143 145 151 149 118 183 174 185 175 153 140 141 153 146 162 145 154
329 327 324 324 326 327 325 322 317 307 267 211 211 209 196 196 190 189 178 184 176 167 160 144 137 138 142 142 149 127 143 170 166 156 160 137 144 132 138 139 173 165 160
324 320 319 317 317 323 325 319 319 314 299 253 199 197 192 187 182 180 173 162 153 152 153 137 135 132 135 144 145 131 153 165 149 154 152 145 138 137 124 138 144 184 171
318 313 316 312 311 311 307 304 317 315 307 225 190 178 182 177 173 170 164 149 144 149 144 132 132 116 112 130 106 129 153 148 162 165 149 145 149 153 122 137 141 138 173
314 322 321 313 311 311 309 290 290 300 301 281 179 180 170 164 163 158 156 149 148 145 138 135 126 127 133 134 137 159 153 171 169 159 150 138 151 128 133 142 144 131 134
314 321 322 326 322 319 319 305 287 283 300 276 170 147 148 152 155 151 151 148 146 141 142 140 142 143 136 136 158 160 157 161 178 167 145 166 140 138 141 141 150 142 129
313 315 319 321 321 320 315 287 283 272 230 226 155 148 152 153 157 151 149 151 155 153 156 152 148 153 154 155 165 164 162 167 169 150 154 154 134 142 146 147 154 150 140
310 309 312 314 314 308 314 311 272 229 199 185 178 170 155 155 153 156 163 161 156 151 147 146 154 156 154 167 160 160 171 159 163 157 142 141 138 144 144 160 161 155 157
319 321 317 313 312 313 310 314 281 230 195 162 157 154 159 164 161 159 153 145 140 140 141 150 146 151 161 155 158 160 162 166 158 148 151 133 144 143 131 101 71 138 167
321 316 312 304 308 313 314 314 302 223 183 152 136 121 123 130 140 138 138 136 137 137 144 146 151 147 142 157 155 160 164 156 146 147 149 149 140 151 133 122 114 89 56
324 311 301 298 303 311 316 324 307 233 174 166 145 144 141 139 135 135 136 136 138 141 146 138 143 134 152 160 156 148 144 138 132 130 126 136 155 142 137 139 118 109 99
312 300 293 294 302 303 313 323 289 227 200 179 163 155 152 153 143 147 141 140 142 141 145 144 149 153 157 158 152 147 141 133 125 119 119 134 130 140 133 125 131 121 108
309 300 297 290 290 299 304 286 278 261 209 186 170 156 153 145 151 149 137 140 142 137 136 136 150 157 155 159 158 153 148 154 148 144 132 151 149 150 142 142 142 139 144
302 312 305 302 306 309 305 285 278 253 228 165 163 152 152 148 135 130 133 136 135 136 143 144 150 152 159 162 163 169 162 163 159 153 154 157 157 156 155 148 156 153 150
320 324 317 308 307 310 311 300 265 93 138 141 151 140 139 141 135 134 139 135 139 140 149 150 150 153 149 151 166 178 171 163 154 155 159 154 165 162 158 158 130 136 153
329 324 319 308 312 336 319 274 299 157 157 146 137 130 134 132 139 141 142 140 145 151 152 154 154 151 151 154 161 167 152 165 153 152 154 156 167 160 155 147 147 151 158
329 330 327 334 334 344 317 303 139 135 142 142 135 133 136 134 139 138 145 149 155 156 160 162 161 156 154 152 158 154 157 141 123 130 147 154 154 161 149 155 158 173 175
338 334 331 339 333 312 331 336 292 132 129 150 136 137 142 138 138 141 153 162 174 178 168 169 162 161 169 170 158 152 152 157 142 140 147 152 163 169 170 173 178 192 186
336 334 342 349 353 337 6 347 195 142 144 132 113 123 140 129 135 134 119 95 136 136 123 149 157 147 140 145 147 148 147 146 145 147 164 170 177 180 185 188 186 191 188